Home > Weather > Citrus Heights > Past weeks

Flag for U.S.A. Weather for the Past 2 Weeks in Citrus Heights, California, U.S.A.

Now
45 °F

Clear.


Feels Like: 43 °F
Forecast: 44 / 72 °F
Wind: 5 mph from Northeast

Location: Sacramento International Airport

Current Time: Feb 9, 2016 at 2:44:50 AM

Latest Report: Feb 9, 2016 at 1:53 AM


Visibility: 8 mi

Pressure: 30.21 "Hg

Humidity: 93%

Dew point: 43 °F

Location of Citrus HeightsLocation

Historic Weather in Citrus Heights — Graph

°F

Citrus Heights Temperature Yesterday

Maximum temperature yesterday: 70 °F (at 2:53 PM)
Minimum temperature yesterday: 39 °F (at 4:53 AM)
Average temperature yesterday: 54 °F

High & Low Weather Summary for the Past Weeks

 TemperatureHumidityPressure
High70 °F (Feb 8, 2:53 PM)100% (Jan 25, 6:53 AM)30.49 "Hg (Jan 25, 6:53 AM)
Low34 °F (Feb 3, 4:53 AM)35% (Feb 1, 1:53 PM)29.71 "Hg (Jan 31, 2:53 PM)
Average49 °F79%30.23 "Hg
* Reported Jan 25 12:53 AM — Feb 9 12:53 AM, Citrus Heights, Weather by CustomWeather, © 2016

Note: Actual official high and low records may vary slightly from our data, if they occured in-between our weather recording intervals... More about our weather records

Advertising

Citrus Heights Weather History for the Previous 24 Hours

 ConditionsComfort  
Time TempWeatherWind HumidityBarometerVisibility
12:53 AM
Tue, Feb 9
47 °FClear.No wind93%30.21 "Hg8 mi
11:53 PM
Mon, Feb 8
47 °FClear.3 mph93%30.21 "Hg8 mi
10:53 PM52 °FClear.6 mph83%30.20 "Hg10 mi
9:53 PM50 °FClear.No wind86%30.19 "Hg10 mi
8:53 PM57 °FClear.No wind69%30.20 "Hg10 mi
7:53 PM61 °FClear.5 mph62%30.19 "Hg10 mi
6:53 PM64 °FClear.7 mph56%30.18 "Hg10 mi
5:53 PM64 °FClear.6 mph56%30.16 "Hg10 mi
4:53 PM68 °FSunny.5 mph53%30.16 "Hg10 mi
3:53 PM69 °FSunny.3 mph53%30.16 "Hg10 mi
2:53 PM70 °FSunny.3 mph47%30.17 "Hg10 mi
1:53 PM68 °FSunny.3 mph53%30.19 "Hg10 mi
12:53 PM65 °FSunny.5 mph52%30.22 "Hg10 mi
11:53 AM63 °FSunny.5 mph56%30.26 "Hg10 mi
10:53 AM62 °FSunny.No wind56%30.27 "Hg10 mi
9:53 AM57 °FSunny.No wind74%30.28 "Hg10 mi
8:53 AM50 °FSunny.No wind93%30.27 "Hg7 mi
7:53 AM42 °FFog.No wind92%30.26 "Hg0 mi
7:00 AM39 °FFog.No wind100%30.25 "Hg0 mi
5:53 AM41 °FFog.3 mph96%30.24 "Hg2 mi
4:53 AM39 °FFog.5 mph96%30.24 "Hg1 mi
3:53 AM40 °FFog.No wind97%30.24 "Hg1 mi
2:53 AM42 °FFog.3 mph96%30.24 "Hg6 mi
Weather by CustomWeather, © 2016

See weather overviewHow to use our weather pages